Weather History for Erie, PA

Change the Weather History Date:

Sunday, February 3, 2013

  Actual Average Record
Temperature  
Mean Temperature 20 °F 27 °F  
Max Temperature 22 °F 34 °F 55 °F (1991)
Min Temperature 17 °F 20 °F -11 °F (1881)
Degree Days  
Heating Degree Days 45 38  
Month to date heating degree days 139 114  
Since 1 July heating degree days 3179 3452  
Cooling Degree Days 0 0  
Month to date cooling degree days 0 0  
Year to date cooling degree days 0 0  
Moisture  
Dew Point 15 °F    
Average Humidity 80    
Maximum Humidity 92    
Minimum Humidity 68    
Precipitation  
Precipitation 0.32 in 0.08 in 0.47 in (1952)
Month to date precipitation 0.69 0.25  
Year to date precipitation 3.99 3.20  
Snow  
Snow 6.40 in 0.70 in - ()
Month to date snowfall 13.2 2.3  
Since 1 July snowfall 65.4 68.1  
Snow Depth 4.00 in    
Sea Level Pressure  
Sea Level Pressure 29.87 in    
Wind  
Wind Speed 8 mph (SW)    
Max Wind Speed 21 mph    
Max Gust Speed 29 mph    
Visibility 3 miles    
Events Fog , Snow    
T = Trace of Precipitation, MM = Missing Value Source: NWS Daily Summary

Daily Weather History Graph

Daily Weather History Graph

Search for Another Location

Airport:

Trip Planner

Search our weather history database for the weather conditions in past years. The results will help you decide how hot, cold, wet, or windy it might be!

Date:

Astronomy

Feb. 03, 2013 Rise Set
Actual Time 7:31 AM EST 5:38 PM EST
Civil Twilight 7:01 AM EST 6:07 PM EST
Nautical Twilight 6:28 AM EST 6:41 PM EST
Astronomical Twilight 5:55 AM EST 7:13 PM EST
Moon 12:57 AM EST (2/3) 11:13 AM EST (2/3)
Length of Visible Light 11h 06m
Length of Day
10h 07m
Waning Gibbous, 49% of the Moon is Illuminated
Feb 3
Waning Gibbous
Feb 10
New
Feb 17
First Quarter
Feb 25
Full
Mar 4
Last Quarter

Hourly Weather History & Observations

Time (EST) Temp. Windchill Dew Point Humidity Pressure Visibility Wind Dir Wind Speed Gust Speed Precip Events Conditions
12:18 AM 19.4 °F 14.3 °F 15.8 °F 86% 29.95 in 1.8 mi ENE 3.5 mph - 0.00 in Snow Light Snow
12:51 AM 19.9 °F 13.4 °F 17.1 °F 89% 29.99 in 1.5 mi ENE 4.6 mph - 0.01 in Snow Light Snow
1:25 AM 19.4 °F 12.8 °F 17.6 °F 93% 29.94 in 2.0 mi ENE 4.6 mph - 0.00 in Snow Light Snow
1:48 AM 19.4 °F 12.8 °F 17.6 °F 93% 29.94 in 3.0 mi ENE 4.6 mph - 0.00 in Snow Light Snow
1:51 AM 19.9 °F 14.9 °F 17.1 °F 89% 29.98 in 3.0 mi ENE 3.5 mph - 0.00 in Snow Light Snow
2:51 AM 19.0 °F - 17.1 °F 92% 29.96 in 6.0 mi Calm Calm - 0.00 in   Overcast
3:51 AM 19.0 °F - 16.0 °F 88% 29.94 in 6.0 mi Calm Calm - 0.00 in   Overcast
4:03 AM 19.4 °F - 15.8 °F 86% 29.90 in 1.5 mi Calm Calm - 0.00 in Snow Light Snow
4:23 AM 19.4 °F - 15.8 °F 86% 29.89 in 3.0 mi Calm Calm - 0.01 in   Overcast
4:51 AM 19.4 °F - 15.8 °F 86% 29.88 in 9.0 mi Calm Calm - N/A   Overcast
5:51 AM 19.0 °F 12.3 °F 14.0 °F 81% 29.91 in 10.0 mi SE 4.6 mph - N/A   Overcast
6:51 AM 19.0 °F 12.3 °F 14.0 °F 81% 29.90 in 10.0 mi SSE 4.6 mph - N/A   Overcast
7:51 AM 19.0 °F 12.3 °F 14.0 °F 81% 29.90 in 10.0 mi SE 4.6 mph - N/A   Overcast
8:01 AM 19.4 °F 12.8 °F 14.0 °F 80% 29.86 in 10.0 mi SSE 4.6 mph - N/A   Overcast
8:51 AM 19.9 °F 13.4 °F 14.0 °F 78% 29.89 in 4.0 mi SSE 4.6 mph - 0.00 in Snow Light Snow
9:04 AM 19.4 °F 14.3 °F 15.8 °F 86% 29.85 in 1.8 mi SE 3.5 mph - 0.00 in Snow Light Snow
9:37 AM 19.4 °F 14.3 °F 15.8 °F 86% 29.84 in 0.8 mi South 3.5 mph - 0.00 in Snow Light Snow
9:46 AM 19.4 °F 14.3 °F 15.8 °F 86% 29.84 in 1.2 mi South 3.5 mph - 0.00 in Snow Light Snow
9:51 AM 19.9 °F 13.4 °F 16.0 °F 85% 29.88 in 1.2 mi South 4.6 mph - 0.00 in Snow Light Snow
10:12 AM 21.2 °F 10.9 °F 15.8 °F 80% 29.84 in 3.0 mi SW 9.2 mph - 0.00 in Snow Light Snow
10:39 AM 21.2 °F 11.7 °F 15.8 °F 80% 29.83 in 7.0 mi WSW 8.1 mph - 0.01 in Snow Light Snow
10:51 AM 21.9 °F 11.0 °F 14.0 °F 72% 29.86 in 10.0 mi SW 10.4 mph - 0.01 in   Overcast
11:23 AM 21.2 °F 10.9 °F 12.2 °F 68% 29.83 in 6.0 mi SW 9.2 mph - 0.00 in Snow Light Snow
11:51 AM 21.9 °F 11.7 °F 12.9 °F 68% 29.86 in 10.0 mi SW 9.2 mph - 0.00 in   Overcast
12:07 PM 21.2 °F 8.3 °F 12.2 °F 68% 29.81 in 9.0 mi SSW 13.8 mph - N/A   Overcast
12:17 PM 21.2 °F 9.5 °F 14.0 °F 74% 29.81 in 1.8 mi SSW 11.5 mph - 0.00 in Snow Light Snow
12:30 PM 19.4 °F 8.6 °F 15.8 °F 86% 29.81 in 0.8 mi SSW 9.2 mph - 0.00 in Snow Light Snow
12:46 PM 19.4 °F 6.6 °F 14.0 °F 80% 29.80 in 2.0 mi South 12.7 mph - 0.00 in Snow Light Snow
12:47 PM 19.9 °F 8.6 °F 14.0 °F 78% 29.83 in 2.0 mi South 10.4 mph - 0.00 in Snow Light Snow
1:06 PM 21.2 °F 12.6 °F 15.8 °F 80% 29.79 in 1.8 mi SW 6.9 mph - 0.00 in Snow Light Snow
1:12 PM 21.2 °F 10.9 °F 15.8 °F 80% 29.79 in 3.0 mi WSW 9.2 mph - 0.00 in Snow Light Snow
1:24 PM 21.2 °F 9.5 °F 15.8 °F 80% 29.79 in 10.0 mi West 11.5 mph - 0.00 in   Overcast
1:43 PM 21.2 °F 10.1 °F 15.8 °F 80% 29.79 in 2.0 mi West 10.4 mph - 0.00 in Snow Light Snow
1:49 PM 21.2 °F 8.9 °F 15.8 °F 80% 29.80 in 0.8 mi WSW 12.7 mph 19.6 mph 0.00 in Snow Light Snow
1:51 PM 21.0 °F 8.1 °F 17.1 °F 85% 29.83 in 0.8 mi West 13.8 mph 21.9 mph 0.00 in Snow Light Snow
2:01 PM 21.2 °F 6.0 °F 17.6 °F 86% 29.80 in 0.5 mi West 19.6 mph 27.6 mph 0.00 in Fog , Snow Light Snow
2:17 PM 19.4 °F 6.6 °F 17.6 °F 93% 29.81 in 0.5 mi WNW 12.7 mph 19.6 mph 0.00 in Fog , Snow Snow
2:51 PM 19.4 °F 7.9 °F 17.6 °F 93% 29.82 in 0.2 mi West 10.4 mph 18.4 mph N/A Fog , Snow Snow
2:58 PM 19.4 °F 7.2 °F 15.8 °F 86% 29.83 in 0.8 mi West 11.5 mph 20.7 mph 0.00 in Snow Light Snow
3:00 PM 19.4 °F 7.9 °F 15.8 °F 86% 29.83 in 1.0 mi West 10.4 mph 20.7 mph 0.01 in Snow Light Snow
3:07 PM 19.4 °F 7.2 °F 14.0 °F 80% 29.83 in 3.0 mi West 11.5 mph 21.9 mph 0.01 in Snow Light Snow
3:19 PM 19.4 °F 7.2 °F 14.0 °F 80% 29.83 in 1.8 mi West 11.5 mph 19.6 mph 0.01 in Snow Light Snow
3:26 PM 19.4 °F 8.6 °F 15.8 °F 86% 29.83 in 0.8 mi West 9.2 mph 19.6 mph 0.01 in Snow Light Snow
3:44 PM 19.4 °F 7.2 °F 15.8 °F 86% 29.84 in 1.2 mi West 11.5 mph - 0.01 in Snow Light Snow
3:49 PM 19.4 °F 8.6 °F 14.0 °F 80% 29.84 in 2.0 mi West 9.2 mph 18.4 mph 0.01 in Snow Light Snow
3:51 PM 19.9 °F 8.6 °F 14.0 °F 78% 29.88 in 3.0 mi West 10.4 mph 18.4 mph 0.01 in Snow Light Snow
4:06 PM 19.4 °F 6.0 °F 12.2 °F 74% 29.84 in 3.0 mi West 13.8 mph 19.6 mph 0.00 in Snow Light Snow
4:09 PM 19.4 °F 5.0 °F 12.2 °F 74% 29.84 in 2.5 mi West 16.1 mph 20.7 mph 0.00 in Snow Light Snow
4:17 PM 19.4 °F 7.9 °F 12.2 °F 74% 29.84 in 1.0 mi WSW 10.4 mph 20.7 mph 0.00 in Snow Light Snow
4:26 PM 19.4 °F 8.6 °F 12.2 °F 74% 29.84 in 3.0 mi WSW 9.2 mph - 0.00 in Snow Light Snow
4:51 PM 19.0 °F 6.8 °F 10.0 °F 68% 29.88 in 9.0 mi SW 11.5 mph - 0.00 in   Overcast
5:05 PM 19.4 °F 8.6 °F 10.4 °F 68% 29.85 in 10.0 mi WSW 9.2 mph - N/A   Overcast
5:20 PM 19.4 °F 9.5 °F 10.4 °F 68% 29.86 in 10.0 mi WSW 8.1 mph - N/A   Overcast
5:51 PM 18.0 °F 6.9 °F 10.9 °F 74% 29.90 in 6.0 mi SW 9.2 mph - 0.00 in Snow Light Snow
6:21 PM 17.6 °F 5.7 °F 12.2 °F 79% 29.87 in 2.0 mi SW 10.4 mph - 0.00 in Snow Light Snow
6:36 PM 17.6 °F 5.7 °F 12.2 °F 79% 29.87 in 1.0 mi SSW 10.4 mph - 0.00 in Snow Light Snow
6:38 PM 17.6 °F 5.7 °F 12.2 °F 79% 29.87 in 0.8 mi SSW 10.4 mph - 0.00 in Snow Light Snow
6:51 PM 17.1 °F 6.6 °F 14.0 °F 88% 29.92 in 0.8 mi SW 8.1 mph - 0.01 in Snow Light Snow
6:59 PM 17.6 °F 5.7 °F 14.0 °F 86% 29.88 in 1.5 mi SW 10.4 mph - 0.00 in Snow Light Snow
7:12 PM 17.6 °F 8.2 °F 14.0 °F 86% 29.88 in 1.2 mi SW 6.9 mph - 0.00 in Snow Light Snow
7:17 PM 17.6 °F 5.0 °F 14.0 °F 86% 29.88 in 0.8 mi WSW 11.5 mph - 0.00 in Snow Light Snow
7:27 PM 17.6 °F 7.3 °F 15.8 °F 93% 29.89 in 0.5 mi SW 8.1 mph - 0.01 in Fog , Snow Snow
7:34 PM 17.6 °F 6.4 °F 15.8 °F 93% 29.89 in 0.8 mi SW 9.2 mph - 0.01 in Snow Light Snow
7:42 PM 17.6 °F 5.7 °F 15.8 °F 93% 29.89 in 0.5 mi SW 10.4 mph - 0.02 in Fog , Snow Snow
7:51 PM 18.0 °F 6.9 °F 15.1 °F 88% 29.93 in 0.8 mi WSW 9.2 mph - 0.02 in Snow Light Snow
8:02 PM 17.6 °F 4.3 °F 15.8 °F 93% 29.89 in 1.0 mi SW 12.7 mph - 0.00 in Snow Light Snow
8:18 PM 17.6 °F 5.0 °F 14.0 °F 86% 29.89 in 0.8 mi WSW 11.5 mph - 0.00 in Snow Light Snow
8:25 PM 17.6 °F 4.3 °F 15.8 °F 93% 29.89 in 1.0 mi SW 12.7 mph 19.6 mph 0.00 in Snow Light Snow
8:33 PM 17.6 °F 3.7 °F 14.0 °F 86% 29.89 in 0.8 mi SW 13.8 mph - 0.01 in Snow Light Snow
8:40 PM 17.6 °F 5.0 °F 14.0 °F 86% 29.89 in 1.0 mi SW 11.5 mph - 0.01 in Snow Light Snow
8:51 PM 18.0 °F 4.2 °F 14.0 °F 84% 29.93 in 0.8 mi SW 13.8 mph - 0.01 in Snow Light Snow
8:53 PM 17.6 °F 3.7 °F 14.0 °F 86% 29.89 in 1.0 mi SW 13.8 mph - 0.00 in Snow Light Snow
9:23 PM 17.6 °F 2.7 °F 14.0 °F 86% 29.89 in 0.8 mi SW 16.1 mph 20.7 mph 0.00 in Snow Light Snow
9:43 PM 17.6 °F 4.3 °F 14.0 °F 86% 29.89 in 1.0 mi SW 12.7 mph - 0.00 in Snow Light Snow
9:51 PM 18.0 °F 3.1 °F 14.0 °F 84% 29.93 in 0.8 mi SW 16.1 mph 24.2 mph 0.00 in Snow Light Snow
10:00 PM 17.6 °F 3.7 °F 15.8 °F 93% 29.89 in 0.5 mi SW 13.8 mph 24.2 mph 0.01 in Fog , Snow Snow
10:18 PM 17.6 °F 5.0 °F 15.8 °F 93% 29.91 in 0.2 mi WSW 11.5 mph - 0.02 in Fog , Snow Heavy Snow
10:51 PM 19.0 °F 8.2 °F 15.1 °F 85% 29.95 in 0.5 mi West 9.2 mph - 0.04 in Fog , Snow Light Snow
10:53 PM 19.4 °F 6.0 °F 14.0 °F 80% 29.92 in 3.0 mi West 13.8 mph 20.7 mph 0.00 in Snow Light Snow
11:01 PM 21.2 °F 6.4 °F 10.4 °F 63% 29.91 in 8.0 mi West 18.4 mph 25.3 mph 0.04 in   Overcast
11:20 PM 21.2 °F 7.3 °F 10.4 °F 63% 29.92 in 6.0 mi West 16.1 mph 24.2 mph 0.04 in   Overcast
11:51 PM 21.0 °F 7.6 °F 10.9 °F 65% 29.96 in 6.0 mi WNW 15.0 mph 24.2 mph 0.04 in   Haze